Weather reports worldwide

Advertisment
Cozzo Spadaro, Italy (16480): temperature & dewpoint: 09.12.2018 07:00:00 - 15.12.2018 07:00:00 (CET)Cozzo Spadaro, Italy (16480): wind speed: 09.12.2018 07:00:00 - 15.12.2018 07:00:00 (CET)Cozzo Spadaro, Italy (16480): wind direction: 09.12.2018 07:00:00 - 15.12.2018 07:00:00 (CET)Cozzo Spadaro, Italy (16480): reduced air pressure: 09.12.2018 07:00:00 - 15.12.2018 07:00:00 (CET)Cozzo Spadaro, Italy (16480): visibility: 09.12.2018 07:00:00 - 15.12.2018 07:00:00 (CET)Cozzo Spadaro, Italy (16480): sunshine duration: 09.12.2018 07:00:00 - 15.12.2018 07:00:00 (CET)
Date & Time tt [°C] td [°C] ff [km/h] ff [kn] dd ppp [hPa] vv [km] sd [min]
15.12.2018 07:00:00 - - - - - - - -
15.12.2018 06:00:00 - - - - - - - -
15.12.2018 05:00:00 - - - - - - - -
15.12.2018 04:00:00 - - - - - - - -
15.12.2018 03:00:00 - - - - - - - -
15.12.2018 02:00:00 - - - - - - - -
15.12.2018 01:00:00 - - - - - - - -
15.12.2018 00:00:00 - - - - - - - -
14.12.2018 23:00:00 - - - - - - - -
14.12.2018 22:00:00 - - - - - - - -
14.12.2018 21:00:00 - - - - - - - -
14.12.2018 20:00:00 - - - - - - - -
14.12.2018 19:00:00 17,0 14,8 5 3 SSW 1008,0 12 -
14.12.2018 18:00:00 16,8 14,6 4 2 S 1008,0 15 -
14.12.2018 17:00:00 17,0 14,8 8 4 S 1008,0 15 0
14.12.2018 16:00:00 17,6 15,0 9 5 SSW 1008,0 20 0
14.12.2018 15:00:00 18,2 14,7 11 6 SSW 1008,0 25 0
14.12.2018 14:00:00 18,4 14,5 13 7 SSW 1008,2 25 6
14.12.2018 13:00:00 18,4 14,7 11 6 SSW 1008,9 25 54
14.12.2018 12:00:00 18,8 15,7 15 8 S 1009,9 25 60
14.12.2018 11:00:00 18,6 14,9 15 8 S 1010,3 25 60
14.12.2018 10:00:00 17,8 14,7 11 6 SSW 1011,0 25 60
14.12.2018 09:00:00 17,6 14,7 15 8 SSW 1011,0 25 60
14.12.2018 08:00:00 16,6 14,2 9 5 SSW 1011,1 20 6
14.12.2018 07:00:00 15,4 13,4 11 6 SW 1011,1 15 0
14.12.2018 06:00:00 - - - - - - - -
14.12.2018 05:00:00 - - - - - - - -
14.12.2018 04:00:00 - - - - - - - -
14.12.2018 03:00:00 - - - - - - - -
14.12.2018 02:00:00 - - - - - - - -
14.12.2018 01:00:00 - - - - - - - -
14.12.2018 00:00:00 - - - - - - - -
13.12.2018 23:00:00 - - - - - - - -
13.12.2018 22:00:00 - - - - - - - -
13.12.2018 21:00:00 - - - - - - - -
13.12.2018 20:00:00 - - - - - - - -
13.12.2018 19:00:00 15,2 12,3 4 2 W 1013,1 15 -
13.12.2018 18:00:00 15,2 13,1 4 2 W 1013,1 15 -
13.12.2018 17:00:00 15,8 13,3 5 3 W 1013,1 20 0
13.12.2018 16:00:00 16,2 13,3 11 6 W 1013,1 20 0
13.12.2018 15:00:00 17,2 13,1 16 9 W 1013,1 18 42
13.12.2018 14:00:00 17,4 13,1 18 10 W 1013,0 12 60
13.12.2018 13:00:00 17,4 13,5 21 11 W 1013,9 12 54
13.12.2018 12:00:00 17,0 13,5 16 9 W 1014,6 15 36
13.12.2018 11:00:00 14,0 12,2 11 6 NW 1015,1 6 0
13.12.2018 10:00:00 15,6 13,3 15 8 WNW 1014,7 10 0
13.12.2018 09:00:00 15,6 11,6 18 10 W 1014,7 15 0
13.12.2018 08:00:00 14,8 10,8 16 9 W 1014,7 15 0
13.12.2018 07:00:00 13,2 11,1 5 3 WNW 1015,1 18 0
13.12.2018 06:00:00 - - - - - - - -
13.12.2018 05:00:00 - - - - - - - -
13.12.2018 04:00:00 - - - - - - - -
13.12.2018 03:00:00 - - - - - - - -
13.12.2018 02:00:00 - - - - - - - -
13.12.2018 01:00:00 - - - - - - - -
13.12.2018 00:00:00 - - - - - - - -
12.12.2018 23:00:00 - - - - - - - -
12.12.2018 22:00:00 - - - - - - - -
12.12.2018 21:00:00 - - - - - - - -
12.12.2018 20:00:00 - - - - - - - -
12.12.2018 19:00:00 13,0 12,1 2 1 W 1017,6 15 -
12.12.2018 18:00:00 13,0 12,2 2 1 WSW 1017,6 15 -
12.12.2018 17:00:00 14,0 12,2 4 2 NW 1018,0 15 0
12.12.2018 16:00:00 14,4 11,2 2 1 WNW 1018,2 20 0
12.12.2018 15:00:00 14,6 11,7 5 3 W 1018,1 20 0
12.12.2018 14:00:00 14,8 10,4 9 5 W 1018,1 25 0
12.12.2018 13:00:00 15,0 10,0 9 5 W 1018,1 25 0
12.12.2018 12:00:00 15,0 10,4 9 5 W 1019,1 25 0
12.12.2018 11:00:00 16,0 10,5 8 4 WNW 1019,1 20 60
12.12.2018 10:00:00 15,0 9,6 9 5 WNW 1019,2 25 60
12.12.2018 09:00:00 13,4 8,9 8 4 NW 1019,2 25 60
12.12.2018 08:00:00 12,0 8,1 9 5 WNW 1018,6 25 12
12.12.2018 07:00:00 11,8 7,7 5 3 WNW 1018,3 25 0
12.12.2018 06:00:00 - - - - - - - -
12.12.2018 05:00:00 - - - - - - - -
12.12.2018 04:00:00 - - - - - - - -
12.12.2018 03:00:00 - - - - - - - -
12.12.2018 02:00:00 - - - - - - - -
12.12.2018 01:00:00 - - - - - - - -
12.12.2018 00:00:00 - - - - - - - -
11.12.2018 23:00:00 - - - - - - - -
11.12.2018 22:00:00 - - - - - - - -
11.12.2018 21:00:00 - - - - - - - -
11.12.2018 20:00:00 - - - - - - - -
11.12.2018 19:00:00 13,0 9,3 9 5 WNW 1017,2 20 -
11.12.2018 18:00:00 14,0 9,7 13 7 WNW 1016,6 20 -
11.12.2018 17:00:00 15,0 10,0 8 4 WNW 1016,1 25 0
11.12.2018 16:00:00 16,0 9,9 11 6 WNW 1017,0 25 60
11.12.2018 15:00:00 17,4 9,3 11 6 WNW 1016,8 25 60
11.12.2018 14:00:00 18,0 4,9 16 9 NW 1015,8 25 60
11.12.2018 13:00:00 17,4 5,0 21 11 NNW 1016,0 25 60
11.12.2018 12:00:00 17,0 6,2 18 10 NNW 1016,7 25 60
11.12.2018 11:00:00 16,6 7,5 18 10 NW 1017,0 20 60
11.12.2018 10:00:00 15,0 8,0 13 7 NW 1017,2 20 60
11.12.2018 09:00:00 13,6 7,6 15 8 NW 1016,6 20 60
11.12.2018 08:00:00 13,0 8,1 11 6 NW 1016,2 20 12
11.12.2018 07:00:00 12,8 8,5 11 6 WNW 1016,1 20 0
11.12.2018 06:00:00 - - - - - - - -
11.12.2018 05:00:00 - - - - - - - -
11.12.2018 04:00:00 - - - - - - - -
11.12.2018 03:00:00 - - - - - - - -
11.12.2018 02:00:00 - - - - - - - -
11.12.2018 01:00:00 - - - - - - - -
11.12.2018 00:00:00 - - - - - - - -
10.12.2018 23:00:00 - - - - - - - -
10.12.2018 22:00:00 - - - - - - - -
10.12.2018 21:00:00 - - - - - - - -
10.12.2018 20:00:00 - - - - - - - -
10.12.2018 19:00:00 14,0 11,2 4 2 WNW 1014,3 15 -
10.12.2018 18:00:00 15,0 11,2 13 7 WNW 1014,1 15 0
10.12.2018 17:00:00 15,8 11,0 18 10 WNW 1014,1 18 6
10.12.2018 16:00:00 16,8 11,7 18 10 WNW 1014,1 25 60
10.12.2018 15:00:00 18,2 9,3 15 8 WNW 1014,0 25 60
10.12.2018 14:00:00 18,2 11,5 18 10 WNW 1014,1 25 60
10.12.2018 13:00:00 18,6 9,4 18 10 NW 1014,4 25 60
10.12.2018 12:00:00 18,6 8,8 16 9 NW 1015,1 25 60
10.12.2018 11:00:00 18,0 8,8 15 8 NW 1015,1 25 60
10.12.2018 10:00:00 17,0 9,9 18 10 NW 1014,1 20 60
10.12.2018 09:00:00 15,4 10,6 16 9 WNW 1014,0 20 60
10.12.2018 08:00:00 14,4 11,2 15 8 NW 1013,4 20 12
10.12.2018 07:00:00 15,2 12,2 15 8 NNW 1013,4 20 0
10.12.2018 06:00:00 - - - - - - - -
10.12.2018 05:00:00 - - - - - - - -
10.12.2018 04:00:00 - - - - - - - -
10.12.2018 03:00:00 - - - - - - - -
10.12.2018 02:00:00 - - - - - - - -
10.12.2018 01:00:00 - - - - - - - -
10.12.2018 00:00:00 - - - - - - - -
09.12.2018 23:00:00 - - - - - - - -
09.12.2018 22:00:00 - - - - - - - -
09.12.2018 21:00:00 - - - - - - - -
09.12.2018 20:00:00 - - - - - - - -
09.12.2018 19:00:00 15,8 13,8 28 15 WNW 1014,2 10 0
09.12.2018 18:00:00 15,8 13,7 26 14 WNW 1014,9 14 0
09.12.2018 17:00:00 16,4 13,1 18 10 WNW 1016,0 18 12
09.12.2018 16:00:00 17,4 12,3 18 10 WNW 1016,1 20 60
09.12.2018 15:00:00 17,6 10,7 18 10 NNE 1016,1 25 60
09.12.2018 14:00:00 17,6 10,0 18 10 WNW 1016,1 25 60
09.12.2018 13:00:00 17,2 8,9 18 10 WNW 1017,0 25 60
09.12.2018 12:00:00 17,0 8,7 15 8 NW 1018,0 25 60
09.12.2018 11:00:00 16,4 9,1 16 9 WNW 1018,9 20 60
09.12.2018 10:00:00 15,2 8,9 15 8 NW 1019,0 25 60
09.12.2018 09:00:00 13,6 8,0 13 7 NW 1018,6 25 60
09.12.2018 08:00:00 12,8 8,1 11 6 WNW 1018,2 20 12
09.12.2018 07:00:00 12,6 8,3 9 5 WNW 1018,0 20 0

tt = temperature
td = dewpoint
ff = wind speed
dd = wind direction
ppp = reduced air pressure
vv = visibility
sd = sunshine duration

Next stations